When you browse on this site, cookies collect data to enhance your experience and personalize the content and advertising you see.
Visit our Privacy Policy to learn more. By continuing to use the site, you agree to this use of cookies and data.

Hourly Weather Ballycastle

Today, 5 July, Sunday

Time Temperature Precipitation Wind Pressure Humidity
00:00 +13°C° 0.4 mm 11 mps 742 mmHg 92%
01:00 +12°C° 0.1 mm 11 mps 743 mmHg 91%
02:00 +10°C° 0.1 mm 12 mps 744 mmHg 90%
03:00 +9°C° 0.1 mm 12 mps 745 mmHg 89%
04:00 +9°C° 0.1 mm 11 mps 746 mmHg 88%
05:00 +8°C° 0.1 mm 10 mps 746 mmHg 87%
06:00 +8°C° 0.1 mm 9 mps 747 mmHg 87%
07:00 +10°C° 0.2 mm 9 mps 747 mmHg 85%
08:00 +11°C° 0.2 mm 9 mps 747 mmHg 83%
09:00 +11°C° 0.2 mm 9 mps 747 mmHg 81%
10:00 +11°C° 0.4 mm 9 mps 747 mmHg 81%
11:00 +12°C° 0.4 mm 9 mps 747 mmHg 82%
12:00 +12°C° 0.4 mm 9 mps 747 mmHg 83%
13:00 +11°C° 0.5 mm 9 mps 747 mmHg 84%
14:00 +11°C° 0.5 mm 9 mps 747 mmHg 85%
15:00 +11°C° 0.5 mm 8 mps 747 mmHg 87%
16:00 +11°C° 0.3 mm 9 mps 748 mmHg 87%
17:00 +11°C° 0.3 mm 9 mps 748 mmHg 86%
18:00 +11°C° 0.3 mm 10 mps 749 mmHg 86%
19:00 +11°C° 0.1 mm 10 mps 750 mmHg 86%
20:00 +9°C° 0.1 mm 10 mps 751 mmHg 87%
21:00 +8°C° 0.1 mm 10 mps 751 mmHg 87%
22:00 +9°C° 0.1 mm 11 mps 752 mmHg 87%
23:00 +9°C° 0.1 mm 11 mps 752 mmHg 87%

Tomorrow, 6 July, Monday

Time Temperature Precipitation Wind Pressure Humidity
00:00 +9°C° 0.1 mm 12 mps 753 mmHg 87%
01:00 +9°C° 0.1 mm 11 mps 753 mmHg 87%
02:00 +9°C° 0.1 mm 11 mps 754 mmHg 87%
03:00 +9°C° 0.1 mm 11 mps 755 mmHg 87%
04:00 +9°C° 0.1 mm 10 mps 756 mmHg 88%
05:00 +9°C° 0.1 mm 10 mps 757 mmHg 89%
06:00 +10°C° 0.1 mm 9 mps 758 mmHg 90%
07:00 +11°C° 0.1 mm 9 mps 759 mmHg 86%
08:00 +11°C° 0.1 mm 8 mps 760 mmHg 83%
09:00 +11°C° 0.1 mm 8 mps 760 mmHg 79%
10:00 +12°C° 0 mm 8 mps 761 mmHg 77%
11:00 +12°C° 0 mm 8 mps 762 mmHg 74%
12:00 +12°C° 0 mm 7 mps 762 mmHg 71%
13:00 +12°C° 0 mm 7 mps 762 mmHg 71%
14:00 +12°C° 0 mm 7 mps 763 mmHg 72%
15:00 +12°C° 0 mm 7 mps 763 mmHg 72%
16:00 +13°C° 0 mm 6 mps 763 mmHg 73%
17:00 +13°C° 0 mm 6 mps 763 mmHg 74%
18:00 +11°C° 0 mm 6 mps 763 mmHg 75%
19:00 +12°C° 0 mm 5 mps 763 mmHg 78%
20:00 +11°C° 0 mm 4 mps 763 mmHg 82%
21:00 +10°C° 0 mm 3 mps 763 mmHg 86%
22:00 +10°C° 0 mm 4 mps 763 mmHg 87%
23:00 +10°C° 0 mm 4 mps 762 mmHg 89%

Day after tomorrow, 7 July, Tuesday

Time Temperature Precipitation Wind Pressure Humidity
00:00 +9°C° 0 mm 5 mps 762 mmHg 90%
01:00 +10°C° 0.1 mm 4 mps 761 mmHg 90%
02:00 +10°C° 0.1 mm 4 mps 761 mmHg 89%
03:00 +10°C° 0.1 mm 4 mps 760 mmHg 88%
04:00 +10°C° 0.2 mm 4 mps 759 mmHg 90%
05:00 +10°C° 0.2 mm 4 mps 759 mmHg 92%
06:00 +10°C° 0.2 mm 4 mps 758 mmHg 94%
07:00 +9°C° 0.7 mm 5 mps 757 mmHg 95%
08:00 +9°C° 0.7 mm 5 mps 757 mmHg 95%
09:00 +9°C° 0.7 mm 6 mps 756 mmHg 95%
10:00 +10°C° 0.8 mm 5 mps 756 mmHg 95%
11:00 +11°C° 0.8 mm 4 mps 756 mmHg 95%
12:00 +12°C° 0.8 mm 3 mps 755 mmHg 95%
13:00 +12°C° 0.1 mm 4 mps 756 mmHg 94%
14:00 +12°C° 0.1 mm 4 mps 756 mmHg 93%
15:00 +12°C° 0.1 mm 5 mps 756 mmHg 92%
16:00 +12°C° 0 mm 5 mps 756 mmHg 90%
17:00 +11°C° 0 mm 6 mps 757 mmHg 88%
18:00 +11°C° 0 mm 6 mps 757 mmHg 86%
19:00 +10°C° 0 mm 6 mps 758 mmHg 87%
20:00 +10°C° 0 mm 6 mps 759 mmHg 89%
21:00 +9°C° 0 mm 6 mps 759 mmHg 91%
22:00 +9°C° 0 mm 5 mps 760 mmHg 92%
23:00 +8°C° 0 mm 5 mps 760 mmHg 92%

8 July, Wednesday

Time Temperature Precipitation Wind Pressure Humidity
00:00 +8°C° 0 mm 5 mps 760 mmHg 93%
01:00 +8°C° 0 mm 4 mps 760 mmHg 93%
02:00 +8°C° 0 mm 4 mps 760 mmHg 93%
03:00 +8°C° 0 mm 4 mps 761 mmHg 93%
04:00 +8°C° 0 mm 4 mps 761 mmHg 92%
05:00 +10°C° 0 mm 3 mps 761 mmHg 92%
06:00 +10°C° 0 mm 3 mps 761 mmHg 91%
07:00 +11°C° 0 mm 3 mps 761 mmHg 87%
08:00 +13°C° 0 mm 2 mps 761 mmHg 82%
09:00 +14°C° 0 mm 2 mps 762 mmHg 77%
10:00 +14°C° 0 mm 2 mps 762 mmHg 76%
11:00 +14°C° 0 mm 2 mps 762 mmHg 74%
12:00 +15°C° 0 mm 2 mps 762 mmHg 73%
13:00 +15°C° 0 mm 2 mps 761 mmHg 75%
14:00 +15°C° 0 mm 2 mps 761 mmHg 77%
15:00 +15°C° 0 mm 2 mps 761 mmHg 79%
16:00 +14°C° 0.3 mm 2 mps 761 mmHg 82%
17:00 +12°C° 0.3 mm 3 mps 760 mmHg 86%
18:00 +11°C° 0.3 mm 3 mps 760 mmHg 90%
19:00 +11°C° 0.4 mm 4 mps 759 mmHg 91%
20:00 +9°C° 0.4 mm 5 mps 759 mmHg 93%
21:00 +9°C° 0.4 mm 6 mps 758 mmHg 94%
22:00 +10°C° 1.2 mm 7 mps 757 mmHg 95%
23:00 +10°C° 1.2 mm 7 mps 756 mmHg 96%

9 July, Thursday

Time Temperature Precipitation Wind Pressure Humidity
00:00 +11°C° 1.2 mm 8 mps 756 mmHg 97%
01:00 +12°C° 0.6 mm 7 mps 755 mmHg 96%
02:00 +12°C° 0.6 mm 7 mps 754 mmHg 96%
03:00 +14°C° 0.6 mm 7 mps 753 mmHg 95%
04:00 +14°C° 0.6 mm 7 mps 752 mmHg 95%
05:00 +13°C° 0.6 mm 8 mps 751 mmHg 95%
06:00 +13°C° 0.6 mm 8 mps 750 mmHg 94%
07:00 +15°C° 0.2 mm 8 mps 749 mmHg 94%
08:00 +15°C° 0.2 mm 8 mps 748 mmHg 94%
09:00 +15°C° 0.2 mm 8 mps 747 mmHg 93%
10:00 +15°C° 0.2 mm 8 mps 746 mmHg 90%
11:00 +13°C° 0.2 mm 8 mps 746 mmHg 88%
12:00 +12°C° 0.2 mm 8 mps 745 mmHg 85%
13:00 +12°C° 0.2 mm 10 mps 746 mmHg 88%
14:00 +12°C° 0.2 mm 11 mps 746 mmHg 90%
15:00 +12°C° 0.2 mm 12 mps 747 mmHg 93%
16:00 +10°C° 0.4 mm 14 mps 747 mmHg 92%
17:00 +10°C° 0.4 mm 15 mps 748 mmHg 91%
18:00 +9°C° 0.4 mm 17 mps 749 mmHg 90%
19:00 +9°C° 0.2 mm 16 mps 750 mmHg 87%
20:00 +9°C° 0.2 mm 16 mps 751 mmHg 85%
21:00 +9°C° 0.2 mm 16 mps 752 mmHg 82%
22:00 +9°C° 0 mm 15 mps 753 mmHg 79%
23:00 +9°C° 0 mm 15 mps 754 mmHg 76%

10 July, Friday

Time Temperature Precipitation Wind Pressure Humidity
00:00 +10°C° 0 mm 15 mps 755 mmHg 73%
01:00 +9°C° 0 mm 13 mps 755 mmHg 75%
02:00 +9°C° 0 mm 12 mps 756 mmHg 77%
03:00 +9°C° 0 mm 11 mps 757 mmHg 78%
04:00 +9°C° 0 mm 11 mps 757 mmHg 80%
05:00 +9°C° 0 mm 10 mps 758 mmHg 83%
06:00 +10°C° 0 mm 9 mps 758 mmHg 85%
07:00 +10°C° 0 mm 9 mps 759 mmHg 83%
08:00 +11°C° 0 mm 8 mps 759 mmHg 81%
09:00 +11°C° 0 mm 8 mps 759 mmHg 79%
10:00 +12°C° 0.1 mm 7 mps 760 mmHg 78%
11:00 +12°C° 0.1 mm 7 mps 760 mmHg 76%
12:00 +14°C° 0.1 mm 7 mps 761 mmHg 75%
13:00 +14°C° 0.1 mm 7 mps 761 mmHg 76%
14:00 +14°C° 0.1 mm 7 mps 761 mmHg 76%
15:00 +12°C° 0.1 mm 8 mps 761 mmHg 77%
16:00 +12°C° 0 mm 7 mps 762 mmHg 77%
17:00 +12°C° 0 mm 7 mps 762 mmHg 77%
18:00 +11°C° 0 mm 6 mps 762 mmHg 77%
19:00 +10°C° 0 mm 6 mps 762 mmHg 79%
20:00 +9°C° 0 mm 5 mps 763 mmHg 82%
21:00 +8°C° 0 mm 5 mps 763 mmHg 85%
22:00 +8°C° 0 mm 5 mps 763 mmHg 86%
23:00 +8°C° 0 mm 5 mps 763 mmHg 88%
Show more